Volver al catálogo

STARLINK-36315

ActivoComunicacionesSSO
NORAD 67731·PAYLOAD·🇺🇸 United States

Lanzado Feb 11, 2026 desde Vandenberg Space Force Base

Loading…

Próximos Pases (próximas 24 horas)

TLE

ActualizadoSource: CelesTrak SupGP

Época: Sep 15, 2026, 04:10 UTC

1 67731C 26026L   26258.17409722 -.00026759  00000+0 -83069-3 0  2582
2 67731  97.2847 310.0732 0000831  91.0378 273.0218 15.33452119    17

Sigue STARLINK-36315 en tiempo real con AllMySat

Download on the App Store